{"data":{"norad_id":62627,"epoch":"2026-09-22T20:22:11.050464Z","epoch_age_seconds":114767,"freshness":"FRESH","line1":"1 62627U 25009U   26265.84873901  .00001969  00000+0  91293-4 0  9992","line2":"2 62627  97.3918 342.4040 0007173 299.5152  60.5368 15.21222676 93521","mean_motion":15.21222676,"eccentricity":0.0007173,"inclination_deg":97.3918,"raan_deg":342.404,"arg_perigee_deg":299.5152,"mean_anomaly_deg":60.5368,"bstar":9.1293e-5,"rev_number":9352,"period_min":94.660697787284,"perigee_km":497.21624413987,"apogee_km":507.08670598619,"semimajor_km":6880.288475063,"source":"CELESTRAK","updated_at":"2026-09-23T09:00:21.532342Z"}}